EW9198 Weather Reports


Display with metric or nautical units.
time (UTC)temp
F
wind
direction
speed
MPH
gust
MPH
rain 1hr
in
rain 24hr
in
rain mn
in
humidity
%
barometer
mb
20200123030239 49 85 0.0 2.0 0.02 0.59 0.59 87 1013.9
20200123024551 49 120 0.0 2.0 0.01 0.57 0.57 87 1013.7
20200123023052 49 77 0.0 2.0 0.01 0.57 0.57 87 1013.7
20200123021543 49 55 0.0 3.0 0.01 0.57 0.57 87 1013.8
20200123020056 48 78 0.0 5.0 0.02 0.57 0.57 87 1013.8
20200123014523 48 164 0.0 1.0 0.01 0.56 0.56 87 1013.9
20200123013010 48 140 1.0 4.0 0.02 0.56 0.56 87 1013.9
20200123011548 47 136 0.0 3.0 0.02 0.56 0.56 87 1014.0
20200123010006 47 144 0.0 5.0 0.02 0.56 0.56 87 1014.2
20200123004513 47 64 1.0 6.0 0.02 0.56 0.56 87 1013.6
20200123003037 47 121 2.0 10.0 0.01 0.55 0.55 87 1013.3
20200123001503 47 119 1.0 8.0 0.01 0.55 0.55 87 1013.6
20200123000014 47 70 2.0 6.0 0.00 0.54 0.54 87 1013.8
20200122234904 47 87 4.0 9.0 0.00 0.54 0.54 87 1013.6
20200122233344 47 159 2.0 6.0 0.00 0.54 0.54 87 1014.1
20200122231742 46 121 1.0 7.0 0.00 0.54 0.54 87 1014.2
20200122230341 46 175 1.0 4.0 0.00 0.54 0.54 87 1014.3
20200122224630 46 117 2.0 7.0 0.00 0.54 0.54 87 1014.7
20200122223321 46 153 0.0 6.0 0.00 0.54 0.54 87 1014.7
20200122221700 46 71 7.0 14.0 0.00 0.54 0.54 87 1012.7
20200122220216 45 69 4.0 9.0 0.00 0.54 0.54 87 1014.5
20200122214721 45 86 4.0 10.0 0.00 0.54 0.54 87 1014.8
20200122213123 45 100 7.0 9.0 0.01 0.54 0.54 87 1014.7
20200122211748 45 80 4.0 10.0 0.03 0.54 0.54 87 1014.8
20200122210417 45 47 5.0 15.0 0.05 0.54 0.54 87 1014.1
20200122204723 45 62 5.0 13.0 0.06 0.54 0.54 87 1014.5
20200122203135 45 92 5.0 10.0 0.06 0.53 0.53 87 1015.1
20200122201632 44 67 2.0 6.0 0.07 0.52 0.52 87 1015.9
20200122200147 44 78 3.0 10.0 0.07 0.50 0.50 87 1015.8
20200122194656 44 74 2.0 7.0 0.07 0.48 0.48 87 1016.0
20200122193139 44 66 3.0 9.0 0.07 0.47 0.47 87 1016.3
20200122191610 43 49 3.0 9.0 0.08 0.46 0.46 87 1016.7
20200122190151 43 72 4.0 12.0 0.07 0.44 0.44 87 1016.9
20200122184629 43 157 4.0 9.0 0.07 0.41 0.41 87 1017.6
20200122183120 43 76 5.0 10.0 0.07 0.40 0.40 87 1017.9
20200122181642 42 67 3.0 14.0 0.07 0.38 0.38 87 1018.2
20200122174534 42 72 3.0 12.0 0.07 0.35 0.35 87 1019.2
20200122173113 42 160 2.0 11.0 0.07 0.33 0.33 87 1019.5
20200122171558 42 61 3.0 13.0 0.08 0.31 0.31 87 1019.6
20200122170044 41 123 3.0 12.0 0.09 0.30 0.30 87 1019.8
20200122164540 41 111 4.0 10.0 0.08 0.28 0.28 87 1020.3
20200122163028 40 232 2.0 6.0 0.09 0.26 0.26 87 1020.8
20200122161600 40 59 4.0 10.0 0.08 0.23 0.23 87 1020.7
20200122160100 40 109 6.0 13.0 0.08 0.22 0.22 87 1020.8
20200122154542 39 69 2.0 10.0 0.08 0.20 0.20 88 1020.8
20200122153051 39 86 5.0 11.0 0.08 0.18 0.18 88 1020.8
20200122151559 39 114 2.0 10.0 0.07 0.16 0.16 88 1020.8
20200122150022 39 74 1.0 10.0 0.06 0.14 0.14 88 1021.0
20200122144514 38 49 3.0 10.0 0.05 0.12 0.12 88 1021.0
20200122143018 38 48 4.0 10.0 0.05 0.11 0.11 88 1021.0
20200122141529 39 49 2.0 9.0 0.03 0.09 0.09 88 1021.0
20200122140026 38 197 6.0 11.0 0.03 0.08 0.08 88 1021.1
20200122134523 39 78 7.0 11.0 0.03 0.07 0.07 88 1021.1
20200122133027 39 84 5.0 11.0 0.04 0.06 0.06 88 1021.4
20200122131532 39 77 7.0 11.0 0.05 0.06 0.06 89 1021.6
20200122130013 39 71 7.0 13.0 0.04 0.05 0.05 89 1021.7
20200122124507 39 76 6.0 11.0 0.04 0.04 0.04 89 1021.6
20200122123010 39 122 4.0 10.0 0.02 0.02 0.02 89 1021.7
20200122120514 39 117 1.0 6.0 0.01 0.01 0.01 90 1021.5
20200122114713 39 111 2.0 10.0 0.00 0.00 0.00 92 1021.4
20200122113230 41 144 2.0 13.0 0.00 0.00 0.00 86 1021.4
20200122111651 41 95 4.0 10.0 0.00 0.00 0.00 87 1021.3
20200122110235 41 78 4.0 9.0 0.00 0.00 0.00 86 1021.3
20200122104738 41 55 2.0 13.0 0.00 0.00 0.00 85 1021.7
20200122103228 42 92 6.0 11.0 0.00 0.00 0.00 82 1021.8
20200122101634 43 72 6.0 11.0 0.00 0.00 0.00 79 1022.6
20200122100112 43 98 4.0 13.0 0.00 0.00 0.00 79 1023.0
20200122094642 43 81 8.0 14.0 0.00 0.00 0.00 79 1022.9
20200122093127 43 93 6.0 12.0 0.00 0.00 0.00 78 1023.8
20200122091631 44 89 6.0 11.0 0.00 0.00 0.00 78 1024.1
20200122090138 44 69 6.0 10.0 0.00 0.00 0.00 77 1024.6
20200122084556 44 90 6.0 13.0 0.00 0.00 0.00 77 1025.2
20200122083125 44 48 6.0 13.0 0.00 0.00 0.00 76 1025.2
20200122081633 44 95 7.0 11.0 0.00 0.00 0.00 76 1025.6
20200122080043 45 82 8.0 11.0 0.00 0.00 0.00 77 1025.1
20200122074543 45 74 6.0 10.0 0.00 0.00 0.00 77 1025.5
20200122073046 45 80 4.0 10.0 0.00 0.00 0.00 78 1025.7
20200122071529 45 158 5.0 9.0 0.00 0.00 0.00 77 1025.5
20200122070033 45 82 3.0 6.0 0.00 0.00 0.00 76 1025.4
20200122064606 45 90 0.0 3.0 0.00 0.00 0.00 75 1025.8
20200122063047 45 82 3.0 6.0 0.00 0.00 0.00 75 1026.0
20200122061529 45 74 3.0 7.0 0.00 0.00 0.00 76 1025.9
20200122060017 46 87 5.0 10.0 0.00 0.00 0.00 75 1026.0
20200122054527 45 64 3.0 4.0 0.00 0.00 0.00 74 1026.3
20200122053006 45 179 2.0 5.0 0.00 0.00 0.00 73 1026.1
20200122051534 45 150 0.0 2.0 0.00 0.00 0.00 72 1026.0
20200122050008 45 138 0.0 2.0 0.00 0.00 0.00 70 1026.0
20200122044506 46 117 1.0 3.0 0.00 0.00 0.00 69 1025.9
20200122043007 46 194 0.0 6.0 0.00 0.00 0.00 69 1025.9
20200122041508 46 117 1.0 4.0 0.00 0.00 0.00 69 1025.8
20200122040006 46 148 0.0 6.0 0.00 0.00 0.00 68 1025.7
20200122034502 47 101 2.0 10.0 0.00 0.00 0.00 71 1025.6
20200122033321 47 86 4.0 9.0 0.00 0.00 0.00 70 1025.8
20200122031735 47 222 3.0 8.0 0.00 0.00 0.00 71 1026.1